Location: Unspecified
(0.0000°N, 0.0000°E)
Time: 23:19:54
(UTC+00:00)

GONETS M 08 (M18) - Pass Details

Date: 25 May 2026
Orbit: 1470 x 1518 km, 82.5° (Epoch: 7 June)

Event Time Altitude Azimuth Distance (km) Brightness Sun altitude
Rises 18:51:58 0° 312° (NW) 4,582 ? -12.8°
Reaches altitude 10° 18:58:58 10° 273° (W) 3,600 ? -14.4°
Maximum altitude 18:59:52 10° 267° (W) 3,585 ? -14.6°
Drops below altitude 10° 19:00:47 10° 260° (W) 3,600 ? -14.9°
Sets 19:07:52 0° 221° (SW) 4,583 ? -16.5°
